Time,TemperatureF,DewpointF,PressureIn,WindDirection,WindDirectionDegrees,WindSpeedMPH,WindSpeedGustMPH,Humidity,HourlyPrecipIn,Conditions,Clouds,dailyrainin,SolarRadiationWatts/m^2,SoftwareType,DateUTC
2013-05-25 00:12:00,52.3,46.3,29.98,South,169,3.0,3.0,80,0.00,,,0.00,0,Wunderground v.1.15,2013-05-25 07:12:00,
2013-05-25 00:18:00,52.3,46.3,29.98,South,186,2.0,6.0,80,0.00,,,0.00,0,Wunderground v.1.15,2013-05-25 07:18:00,
2013-05-25 00:28:00,52.2,46.5,29.98,SE,141,3.0,7.0,81,0.00,,,0.00,0,Wunderground v.1.15,2013-05-25 07:28:00,
2013-05-25 00:42:00,52.0,46.3,29.99,SSW,199,3.0,3.0,81,0.00,,,0.00,0,Wunderground v.1.15,2013-05-25 07:42:00,
2013-05-25 00:48:00,51.9,46.6,29.98,SSE,165,3.0,4.0,82,0.00,,,0.00,0,Wunderground v.1.15,2013-05-25 07:48:00,
2013-05-25 00:58:00,51.9,46.6,29.98,SSE,167,2.0,3.0,82,0.00,,,0.00,0,Wunderground v.1.15,2013-05-25 07:58:00,
2013-05-25 01:08:00,51.7,46.4,29.98,SSE,168,3.0,3.0,82,0.00,,,0.00,0,Wunderground v.1.15,2013-05-25 08:08:00,
2013-05-25 01:22:00,51.7,46.4,29.98,SSW,200,3.0,3.0,82,0.00,,,0.00,0,Wunderground v.1.15,2013-05-25 08:22:00,
2013-05-25 01:28:00,51.7,46.4,29.98,South,172,3.0,3.0,82,0.00,,,0.00,0,Wunderground v.1.15,2013-05-25 08:28:00,
2013-05-25 01:38:00,51.6,46.3,29.98,SSW,209,4.0,6.0,82,0.00,,,0.00,0,Wunderground v.1.15,2013-05-25 08:38:00,
2013-05-25 01:48:00,51.7,46.4,29.98,SSW,195,2.0,4.0,82,0.00,,,0.00,0,Wunderground v.1.15,2013-05-25 08:48:00,
2013-05-25 01:58:00,51.6,46.6,29.98,SSW,205,3.0,3.0,83,0.00,,,0.00,0,Wunderground v.1.15,2013-05-25 08:58:00,
2013-05-25 02:09:00,51.7,46.7,29.98,South,174,1.0,4.0,83,0.00,,,0.00,0,Wunderground v.1.15,2013-05-25 09:09:00,
2013-05-25 02:17:00,51.7,46.7,29.98,SE,141,2.0,4.0,83,0.00,,,0.00,0,Wunderground v.1.15,2013-05-25 09:17:00,
2013-05-25 02:28:00,51.6,46.3,29.98,SSW,196,3.0,7.0,82,0.00,,,0.00,0,Wunderground v.1.15,2013-05-25 09:28:00,
2013-05-25 02:37:00,51.6,46.3,29.98,SSW,203,2.0,3.0,82,0.00,,,0.00,0,Wunderground v.1.15,2013-05-25 09:37:00,
2013-05-25 02:48:00,51.6,46.3,29.98,South,178,3.0,3.0,82,0.00,,,0.00,0,Wunderground v.1.15,2013-05-25 09:48:00,
2013-05-25 03:02:00,51.4,45.8,29.98,South,172,3.0,5.0,81,0.00,,,0.00,0,Wunderground v.1.15,2013-05-25 10:02:00,
2013-05-25 03:08:00,51.4,45.8,29.98,SSE,164,3.0,5.0,81,0.00,,,0.00,0,Wunderground v.1.15,2013-05-25 10:08:00,
2013-05-25 03:18:00,51.4,46.1,29.98,South,182,2.0,2.0,82,0.00,,,0.00,0,Wunderground v.1.15,2013-05-25 10:18:00,
2013-05-25 03:28:00,51.3,45.7,29.98,SSW,192,3.0,3.0,81,0.00,,,0.00,0,Wunderground v.1.15,2013-05-25 10:28:00,
2013-05-25 03:38:00,51.1,45.8,29.98,SSW,205,3.0,5.0,82,0.00,,,0.00,0,Wunderground v.1.15,2013-05-25 10:38:00,
2013-05-25 03:48:00,51.0,45.4,29.98,SSW,209,3.0,3.0,81,0.00,,,0.00,0,Wunderground v.1.15,2013-05-25 10:48:00,
2013-05-25 04:03:00,51.0,45.7,29.98,SSW,192,1.0,1.0,82,0.00,,,0.00,0,Wunderground v.1.15,2013-05-25 11:03:00,
2013-05-25 04:08:00,51.0,45.7,29.98,SE,137,2.0,2.0,82,0.00,,,0.00,0,Wunderground v.1.15,2013-05-25 11:08:00,
2013-05-25 04:23:00,51.0,45.7,29.98,SSW,196,1.0,1.0,82,0.00,,,0.00,0,Wunderground v.1.15,2013-05-25 11:23:00,
2013-05-25 04:28:00,51.0,45.7,29.98,SE,128,1.0,1.0,82,0.00,,,0.00,0,Wunderground v.1.15,2013-05-25 11:28:00,
2013-05-25 04:38:00,51.0,46.0,29.98,South,186,1.0,2.0,83,0.00,,,0.00,0,Wunderground v.1.15,2013-05-25 11:38:00,
2013-05-25 04:48:00,50.8,45.8,29.97,SSE,164,2.0,2.0,83,0.00,,,0.00,0,Wunderground v.1.15,2013-05-25 11:48:00,
2013-05-25 04:58:00,50.8,45.8,29.97,SSE,158,1.0,2.0,83,0.00,,,0.00,0,Wunderground v.1.15,2013-05-25 11:58:00,
2013-05-25 05:09:00,50.8,45.8,29.97,SSW,198,1.0,5.0,83,0.00,,,0.00,0,Wunderground v.1.15,2013-05-25 12:09:00,
2013-05-25 05:17:00,50.8,45.8,29.97,SSW,198,0.0,3.0,83,0.00,,,0.00,0,Wunderground v.1.15,2013-05-25 12:17:00,
2013-05-25 05:27:00,50.8,45.8,29.97,ESE,116,1.0,1.0,83,0.00,,,0.00,5,Wunderground v.1.15,2013-05-25 12:27:00,
2013-05-25 05:37:00,50.8,45.8,29.97,South,171,2.0,9.0,83,0.00,,,0.00,5,Wunderground v.1.15,2013-05-25 12:37:00,
2013-05-25 05:48:00,50.7,45.7,29.98,South,176,3.0,4.0,83,0.00,,,0.00,7,Wunderground v.1.15,2013-05-25 12:48:00,
2013-05-25 05:57:00,50.7,46.0,29.98,SSE,168,2.0,3.0,84,0.00,,,0.00,11,Wunderground v.1.15,2013-05-25 12:57:00,
2013-05-25 06:07:00,50.7,46.0,29.98,SE,136,1.0,2.0,84,0.00,,,0.00,19,Wunderground v.1.15,2013-05-25 13:07:00,
2013-05-25 06:22:00,50.7,45.7,29.98,South,189,2.0,2.0,83,0.00,,,0.00,25,Wunderground v.1.15,2013-05-25 13:22:00,
2013-05-25 06:28:00,50.8,45.8,29.98,South,178,2.0,2.0,83,0.00,,,0.00,28,Wunderground v.1.15,2013-05-25 13:28:00,
2013-05-25 06:42:00,51.0,46.0,29.98,SSE,155,1.0,1.0,83,0.00,,,0.00,39,Wunderground v.1.15,2013-05-25 13:42:00,
2013-05-25 06:48:00,51.0,46.0,29.98,SE,143,1.0,2.0,83,0.00,,,0.00,39,Wunderground v.1.15,2013-05-25 13:48:00,
2013-05-25 06:58:00,51.1,46.1,29.98,SSE,147,1.0,2.0,83,0.00,,,0.00,48,Wunderground v.1.15,2013-05-25 13:58:00,
2013-05-25 07:13:00,51.3,46.0,29.98,SE,134,2.0,2.0,82,0.00,,,0.00,76,Wunderground v.1.15,2013-05-25 14:13:00,
2013-05-25 07:18:00,51.3,45.7,29.98,ESE,113,3.0,6.0,81,0.00,,,0.00,86,Wunderground v.1.15,2013-05-25 14:18:00,
2013-05-25 07:28:00,51.4,46.1,29.98,SSE,161,2.0,3.0,82,0.00,,,0.00,95,Wunderground v.1.15,2013-05-25 14:28:00,
2013-05-25 07:38:00,51.7,46.4,29.98,SSW,192,2.0,2.0,82,0.00,,,0.00,128,Wunderground v.1.15,2013-05-25 14:38:00,
2013-05-25 07:48:00,51.7,46.1,29.98,South,182,3.0,4.0,81,0.00,,,0.00,141,Wunderground v.1.15,2013-05-25 14:48:00,
2013-05-25 07:59:00,51.9,45.6,29.98,ESE,121,3.0,5.0,79,0.00,,,0.00,141,Wunderground v.1.15,2013-05-25 14:59:00,
2013-05-25 08:09:00,51.9,45.6,29.98,South,176,3.0,5.0,79,0.00,,,0.00,157,Wunderground v.1.15,2013-05-25 15:09:00,
2013-05-25 08:22:00,52.0,45.4,29.98,SSW,200,4.0,4.0,78,0.00,,,0.00,194,Wunderground v.1.15,2013-05-25 15:22:00,
2013-05-25 08:27:00,52.3,45.6,29.98,SSW,208,3.0,7.0,78,0.00,,,0.00,169,Wunderground v.1.15,2013-05-25 15:27:00,
2013-05-25 08:37:00,52.5,45.8,29.98,South,178,2.0,3.0,78,0.00,,,0.00,116,Wunderground v.1.15,2013-05-25 15:37:00,
2013-05-25 08:48:00,52.3,45.6,29.98,South,182,2.0,3.0,78,0.00,,,0.00,100,Wunderground v.1.15,2013-05-25 15:48:00,
2013-05-25 08:57:00,52.2,45.5,29.98,SSW,196,3.0,3.0,78,0.00,,,0.00,102,Wunderground v.1.15,2013-05-25 15:57:00,
2013-05-25 09:08:00,52.3,45.6,29.99,South,178,1.0,2.0,78,0.00,,,0.00,137,Wunderground v.1.15,2013-05-25 16:08:00,
2013-05-25 09:17:00,52.3,45.3,29.99,SSW,205,3.0,9.0,77,0.00,,,0.00,169,Wunderground v.1.15,2013-05-25 16:17:00,
2013-05-25 09:28:00,52.2,45.2,29.99,ESE,113,4.0,4.0,77,0.00,,,0.00,114,Wunderground v.1.15,2013-05-25 16:28:00,
2013-05-25 09:38:00,52.5,45.5,29.99,South,185,2.0,5.0,77,0.00,,,0.00,218,Wunderground v.1.15,2013-05-25 16:38:00,
2013-05-25 09:48:00,52.9,45.2,29.99,SSW,192,3.0,7.0,75,0.00,,,0.00,269,Wunderground v.1.15,2013-05-25 16:48:00,
2013-05-25 09:58:00,53.2,45.5,29.99,SSW,208,3.0,3.0,75,0.00,,,0.00,253,Wunderground v.1.15,2013-05-25 16:58:00,
2013-05-25 10:08:00,53.8,45.7,29.99,South,191,2.0,3.0,74,0.00,,,0.00,274,Wunderground v.1.15,2013-05-25 17:08:00,
2013-05-25 10:18:00,53.8,45.7,29.99,South,188,3.0,5.0,74,0.00,,,0.00,338,Wunderground v.1.15,2013-05-25 17:18:00,
2013-05-25 10:28:00,54.2,45.4,29.99,South,182,3.0,5.0,72,0.00,,,0.00,266,Wunderground v.1.15,2013-05-25 17:28:00,
2013-05-25 10:38:00,54.4,45.6,29.99,South,179,2.0,3.0,72,0.00,,,0.00,292,Wunderground v.1.15,2013-05-25 17:38:00,
2013-05-25 10:48:00,54.7,45.8,29.98,SSW,192,2.0,7.0,72,0.00,,,0.00,366,Wunderground v.1.15,2013-05-25 17:48:00,
2013-05-25 11:03:00,55.0,44.6,29.98,SSW,208,3.0,6.0,68,0.00,,,0.00,669,Wunderground v.1.15,2013-05-25 18:03:00,
2013-05-25 11:09:00,55.3,44.5,29.98,SSW,202,4.0,6.0,67,0.00,,,0.00,540,Wunderground v.1.15,2013-05-25 18:09:00,
2013-05-25 11:22:00,56.7,44.7,29.98,South,189,2.0,2.0,64,0.00,,,0.00,535,Wunderground v.1.15,2013-05-25 18:22:00,
2013-05-25 11:27:00,56.9,44.8,29.98,SSW,202,2.0,3.0,64,0.00,,,0.00,574,Wunderground v.1.15,2013-05-25 18:27:00,
2013-05-25 11:37:00,58.0,45.5,29.98,South,174,3.0,3.0,63,0.00,,,0.00,815,Wunderground v.1.15,2013-05-25 18:37:00,
2013-05-25 11:52:00,59.3,45.0,29.98,South,174,2.0,2.0,59,0.00,,,0.00,540,Wunderground v.1.15,2013-05-25 18:52:00,
2013-05-25 11:57:00,58.9,44.6,29.98,SSE,162,2.0,2.0,59,0.00,,,0.00,558,Wunderground v.1.15,2013-05-25 18:57:00,
2013-05-25 12:08:00,59.2,44.0,29.98,South,172,1.0,1.0,57,0.00,,,0.00,533,Wunderground v.1.15,2013-05-25 19:08:00,
2013-05-25 12:18:00,59.0,44.2,29.98,SSW,196,1.0,1.0,58,0.00,,,0.00,531,Wunderground v.1.15,2013-05-25 19:18:00,
2013-05-25 12:28:00,59.9,45.1,29.98,ESE,120,1.0,5.0,58,0.00,,,0.00,679,Wunderground v.1.15,2013-05-25 19:28:00,
2013-05-25 12:42:00,60.1,44.3,29.97,ESE,110,2.0,6.0,56,0.00,,,0.00,565,Wunderground v.1.15,2013-05-25 19:42:00,
2013-05-25 12:48:00,59.9,44.6,29.97,South,188,3.0,6.0,57,0.00,,,0.00,779,Wunderground v.1.15,2013-05-25 19:48:00,
2013-05-25 12:58:00,61.0,44.2,29.97,South,184,2.0,3.0,54,0.00,,,0.00,718,Wunderground v.1.15,2013-05-25 19:58:00,
2013-05-25 13:08:00,61.3,43.0,29.97,SSW,200,3.0,3.0,51,0.00,,,0.00,658,Wunderground v.1.15,2013-05-25 20:08:00,
2013-05-25 13:18:00,60.4,43.2,29.97,SSW,196,3.0,5.0,53,0.00,,,0.00,516,Wunderground v.1.15,2013-05-25 20:18:00,
2013-05-25 13:28:00,60.9,43.6,29.97,South,186,2.0,2.0,53,0.00,,,0.00,683,Wunderground v.1.15,2013-05-25 20:28:00,
2013-05-25 13:38:00,61.0,43.2,29.97,WSW,253,2.0,2.0,52,0.00,,,0.00,772,Wunderground v.1.15,2013-05-25 20:38:00,
2013-05-25 13:48:00,62.9,42.4,29.96,SSW,193,1.0,1.0,47,0.00,,,0.00,618,Wunderground v.1.15,2013-05-25 20:48:00,
2013-05-25 13:58:00,62.4,43.0,29.96,ESE,116,2.0,6.0,49,0.00,,,0.00,537,Wunderground v.1.15,2013-05-25 20:58:00,
2013-05-25 14:08:00,61.8,42.4,29.96,SSE,155,3.0,4.0,49,0.00,,,0.00,644,Wunderground v.1.15,2013-05-25 21:08:00,
2013-05-25 14:19:00,61.2,44.4,29.96,SSW,199,2.0,5.0,54,0.00,,,0.00,454,Wunderground v.1.15,2013-05-25 21:19:00,
2013-05-25 14:27:00,62.1,43.2,29.96,South,188,3.0,3.0,50,0.00,,,0.00,908,Wunderground v.1.15,2013-05-25 21:27:00,
2013-05-25 14:42:00,64.3,43.6,29.95,SSE,168,2.0,2.0,47,0.00,,,0.00,1005,Wunderground v.1.15,2013-05-25 21:42:00,
2013-05-25 14:48:00,64.0,42.2,29.95,South,185,2.0,2.0,45,0.00,,,0.00,848,Wunderground v.1.15,2013-05-25 21:48:00,
2013-05-25 14:58:00,63.2,43.2,29.95,SE,144,4.0,4.0,48,0.00,,,0.00,931,Wunderground v.1.15,2013-05-25 21:58:00,
2013-05-25 15:07:00,62.9,42.9,29.95,South,171,3.0,5.0,48,0.00,,,0.00,878,Wunderground v.1.15,2013-05-25 22:07:00,
2013-05-25 15:18:00,62.9,42.9,29.95,South,184,3.0,4.0,48,0.00,,,0.00,505,Wunderground v.1.15,2013-05-25 22:18:00,
2013-05-25 15:28:00,63.5,41.8,29.95,South,185,2.0,6.0,45,0.00,,,0.00,457,Wunderground v.1.15,2013-05-25 22:28:00,
2013-05-25 15:38:00,62.1,43.2,29.95,SSE,148,3.0,3.0,50,0.00,,,0.00,523,Wunderground v.1.15,2013-05-25 22:38:00,
2013-05-25 15:48:00,62.3,43.4,29.95,SSE,165,2.0,2.0,50,0.00,,,0.00,524,Wunderground v.1.15,2013-05-25 22:48:00,
2013-05-25 15:58:00,62.3,42.9,29.95,South,191,4.0,4.0,49,0.00,,,0.00,537,Wunderground v.1.15,2013-05-25 22:58:00,
2013-05-25 16:08:00,62.0,43.7,29.95,South,178,3.0,6.0,51,0.00,,,0.00,276,Wunderground v.1.15,2013-05-25 23:08:00,
2013-05-25 16:18:00,61.6,43.8,29.95,SSW,198,3.0,3.0,52,0.00,,,0.00,306,Wunderground v.1.15,2013-05-25 23:18:00,
2013-05-25 16:28:00,61.0,44.2,29.95,SSW,198,3.0,5.0,54,0.00,,,0.00,377,Wunderground v.1.15,2013-05-25 23:28:00,
2013-05-25 16:38:00,60.5,43.8,29.95,SSW,212,3.0,9.0,54,0.00,,,0.00,246,Wunderground v.1.15,2013-05-25 23:38:00,
2013-05-25 16:49:00,60.7,43.9,29.95,South,188,3.0,6.0,54,0.00,,,0.00,269,Wunderground v.1.15,2013-05-25 23:49:00,
2013-05-25 17:03:00,60.4,45.1,29.95,SSW,195,2.0,2.0,57,0.00,,,0.00,257,Wunderground v.1.15,2013-05-26 00:03:00,
2013-05-25 17:09:00,60.5,44.7,29.95,SSW,193,2.0,2.0,56,0.00,,,0.00,355,Wunderground v.1.15,2013-05-26 00:09:00,
2013-05-25 17:19:00,60.7,45.8,29.95,West,275,2.0,2.0,58,0.00,,,0.00,308,Wunderground v.1.15,2013-05-26 00:19:00,
2013-05-25 17:27:00,60.9,46.5,29.95,WSW,247,2.0,3.0,59,0.00,,,0.00,355,Wunderground v.1.15,2013-05-26 00:27:00,
2013-05-25 17:37:00,60.9,46.0,29.94,SSW,192,2.0,2.0,58,0.00,,,0.00,315,Wunderground v.1.15,2013-05-26 00:37:00,
2013-05-25 17:47:00,60.4,46.4,29.94,West,274,1.0,2.0,60,0.00,,,0.00,183,Wunderground v.1.15,2013-05-26 00:47:00,
2013-05-25 17:57:00,59.8,46.3,29.94,WSW,258,2.0,2.0,61,0.00,,,0.00,155,Wunderground v.1.15,2013-05-26 00:57:00,
2013-05-25 18:08:00,59.5,46.0,29.94,WSW,248,1.0,2.0,61,0.00,,,0.00,125,Wunderground v.1.15,2013-05-26 01:08:00,
2013-05-25 18:18:00,59.8,46.7,29.94,WSW,243,1.0,1.0,62,0.00,,,0.00,118,Wunderground v.1.15,2013-05-26 01:18:00,
2013-05-25 18:28:00,59.8,46.7,29.94,West,260,0.0,1.0,62,0.00,,,0.00,158,Wunderground v.1.15,2013-05-26 01:28:00,
2013-05-25 18:38:00,59.9,46.4,29.93,West,260,0.0,0.0,61,0.00,,,0.00,106,Wunderground v.1.15,2013-05-26 01:38:00,
2013-05-25 18:48:00,59.9,46.8,29.94,West,260,0.0,0.0,62,0.00,,,0.00,88,Wunderground v.1.15,2013-05-26 01:48:00,
2013-05-25 18:58:00,59.8,46.7,29.94,WSW,257,0.0,0.0,62,0.00,,,0.00,116,Wunderground v.1.15,2013-05-26 01:58:00,
2013-05-25 19:08:00,59.8,46.7,29.93,WSW,257,0.0,0.0,62,0.00,,,0.00,91,Wunderground v.1.15,2013-05-26 02:08:00,
2013-05-25 19:18:00,59.6,47.0,29.93,SW,234,0.0,1.0,63,0.00,,,0.00,70,Wunderground v.1.15,2013-05-26 02:18:00,
2013-05-25 19:28:00,59.0,46.8,29.93,West,260,1.0,1.0,64,0.00,,,0.00,63,Wunderground v.1.15,2013-05-26 02:28:00,
2013-05-25 19:38:00,58.9,47.2,29.93,West,261,0.0,0.0,65,0.00,,,0.00,56,Wunderground v.1.15,2013-05-26 02:38:00,
2013-05-25 19:48:00,58.7,47.0,29.93,WSW,256,0.0,2.0,65,0.00,,,0.00,44,Wunderground v.1.15,2013-05-26 02:48:00,
2013-05-25 19:59:00,58.4,46.7,29.93,WSW,256,0.0,2.0,65,0.00,,,0.00,40,Wunderground v.1.15,2013-05-26 02:59:00,
2013-05-25 20:09:00,58.0,45.9,29.93,WSW,256,1.0,1.0,64,0.00,,,0.00,23,Wunderground v.1.15,2013-05-26 03:09:00,
2013-05-25 20:32:00,57.6,45.9,29.93,WSW,247,0.0,1.0,65,0.00,,,0.00,9,Wunderground v.1.15,2013-05-26 03:32:00,
2013-05-25 20:38:00,57.3,46.0,29.93,SW,224,1.0,1.0,66,0.00,,,0.00,5,Wunderground v.1.15,2013-05-26 03:38:00,
2013-05-25 20:47:00,57.2,46.3,29.93,SW,236,0.0,1.0,67,0.00,,,0.00,5,Wunderground v.1.15,2013-05-26 03:47:00,
2013-05-25 20:57:00,56.9,46.8,29.93,SW,227,0.0,1.0,69,0.00,,,0.00,0,Wunderground v.1.15,2013-05-26 03:57:00,
2013-05-25 21:02:00,56.9,46.8,29.93,SW,217,0.0,0.0,69,0.00,,,0.00,0,Wunderground v.1.15,2013-05-26 04:02:00,
2013-05-25 21:08:00,56.6,46.9,29.93,SSW,199,1.0,2.0,70,0.00,,,0.00,0,Wunderground v.1.15,2013-05-26 04:08:00,
2013-05-25 21:18:00,56.3,47.0,29.93,WSW,240,1.0,1.0,71,0.00,,,0.00,0,Wunderground v.1.15,2013-05-26 04:18:00,
2013-05-25 21:22:00,56.2,46.9,29.93,WSW,257,1.0,1.0,71,0.00,,,0.00,0,Wunderground v.1.15,2013-05-26 04:22:00,
2013-05-25 21:28:00,56.0,47.1,29.93,WSW,253,1.0,1.0,72,0.00,,,0.00,0,Wunderground v.1.15,2013-05-26 04:28:00,
2013-05-25 21:38:00,55.4,47.6,29.93,WNW,285,1.0,1.0,75,0.00,,,0.00,0,Wunderground v.1.15,2013-05-26 04:38:00,
2013-05-25 21:48:00,55.0,48.3,29.93,WNW,285,0.0,2.0,78,0.00,,,0.01,0,Wunderground v.1.15,2013-05-26 04:48:00,
2013-05-25 21:52:00,54.8,48.4,29.93,WNW,284,1.0,3.0,79,0.00,,,0.01,0,Wunderground v.1.15,2013-05-26 04:52:00,
2013-05-25 21:58:00,54.5,48.5,29.93,WNW,285,1.0,1.0,80,0.00,,,0.01,0,Wunderground v.1.15,2013-05-26 04:58:00,
2013-05-25 22:08:00,54.2,48.5,29.93,WNW,285,0.0,1.0,81,0.00,,,0.01,0,Wunderground v.1.15,2013-05-26 05:08:00,
2013-05-25 22:18:00,54.1,48.7,29.93,WNW,285,1.0,2.0,82,0.00,,,0.01,0,Wunderground v.1.15,2013-05-26 05:18:00,
2013-05-25 22:28:00,53.8,48.4,29.93,WNW,287,1.0,3.0,82,0.00,,,0.01,0,Wunderground v.1.15,2013-05-26 05:28:00,
2013-05-25 22:38:00,53.6,48.9,29.93,WNW,287,1.0,1.0,84,0.00,,,0.01,0,Wunderground v.1.15,2013-05-26 05:38:00,
2013-05-25 22:48:00,53.3,48.9,29.92,WNW,291,1.0,1.0,85,0.00,,,0.01,0,Wunderground v.1.15,2013-05-26 05:48:00,
2013-05-25 23:03:00,53.2,49.4,29.92,WNW,291,1.0,2.0,87,0.00,,,0.01,0,Wunderground v.1.15,2013-05-26 06:03:00,
2013-05-25 23:08:00,53.2,49.4,29.92,WNW,291,1.0,2.0,87,0.00,,,0.01,0,Wunderground v.1.15,2013-05-26 06:08:00,
2013-05-25 23:18:00,52.9,49.1,29.92,WNW,292,1.0,1.0,87,0.00,,,0.01,0,Wunderground v.1.15,2013-05-26 06:18:00,
2013-05-25 23:27:00,52.6,48.5,29.92,WNW,301,2.0,3.0,86,0.00,,,0.01,0,Wunderground v.1.15,2013-05-26 06:27:00,
2013-05-25 23:42:00,52.3,48.2,29.92,WNW,299,1.0,2.0,86,0.00,,,0.01,0,Wunderground v.1.15,2013-05-26 06:42:00,
2013-05-25 23:47:00,52.2,48.1,29.92,NW,304,1.0,2.0,86,0.00,,,0.01,0,Wunderground v.1.15,2013-05-26 06:47:00,
2013-05-25 23:57:00,52.0,47.9,29.92,NW,304,1.0,1.0,86,0.00,,,0.01,0,Wunderground v.1.15,2013-05-26 06:57:00,